RH
96 96 96 94 96 96 96 94 91 92 91 88 86 89 90 96 96 93 92 89 96 96 97 96 96 97 98 98 98 98 97 95 94 86 92 93 93 95 96 96 94 95 94
97 95 92 92 96 95 96 96 96 91 90 87 84 85 88 87 88 86 92 85 96 98 98 97 96 97 96 97 97 96 96 94 93 93 94 96 95 94 94 97 96 96 94
91 93 92 96 97 97 96 99 96 95 92 90 87 91 95 98 92 93 94 94 95 95 95 95 94 95 98 98 98 94 94 93 95 96 94 96 96 98 99 98 97 97 96
89 90 94 98 99 99 97 98 100 94 91 88 89 90 92 94 100 100 99 97 91 93 95 95 92 90 90 91 88 92 94 98 98 98 96 94 96 98 98 98 99 100 98
86 86 91 89 99 98 97 97 98 97 92 86 86 86 90 95 98 99 99 98 94 89 90 87 92 94 96 96 88 91 90 93 95 97 95 96 99 100 99 98 97 96 100
83 82 82 80 82 90 90 96 94 98 98 96 93 91 93 95 94 98 99 100 99 92 89 88 83 89 93 97 96 94 96 96 92 91 96 95 92 96 98 98 98 100 99
81 79 81 77 76 76 76 78 79 88 90 93 94 91 93 94 95 96 98 100 100 98 88 86 82 81 90 86 87 90 92 95 100 95 94 88 94 93 93 97 97 98 96
82 83 82 77 76 74 73 75 74 74 76 79 84 86 90 91 92 93 95 98 98 97 92 88 88 87 84 88 90 92 92 92 93 96 97 94 88 91 93 90 92 99 100
87 88 86 93 77 76 78 77 74 74 75 75 76 82 84 90 90 91 90 92 93 94 90 91 88 85 84 87 89 95 97 97 91 94 98 98 98 100 99 98 100 100 100
94 90 84 90 81 81 79 76 74 73 71 70 73 79 81 90 82 80 84 85 88 87 88 84 84 80 80 82 88 92 97 95 96 96 97 98 100 98 100 98 96 98 100
90 87 86 86 94 84 81 73 74 73 73 78 78 80 80 83 80 79 80 80 87 87 87 88 88 78 79 81 83 88 93 91 95 98 98 99 100 100 100 100 98 98 99
90 91 89 90 88 89 86 85 77 80 84 87 87 86 85 87 80 80 80 79 80 88 94 91 90 78 78 80 83 81 84 90 92 93 97 99 100 100 100 100 100 100 98
93 93 91 90 89 95 93 92 88 87 89 89 88 91 91 89 90 80 80 79 79 89 88 81 78 78 79 86 79 81 88 91 94 95 96 95 96 98 100 100 100 100 100
93 89 90 92 90 89 95 92 87 89 90 91 92 93 90 90 93 91 90 89 84 86 87 88 85 84 82 84 86 86 90 90 91 90 92 94 90 92 97 99 100 100 100
86 84 87 88 92 92 90 96 88 84 80 89 93 93 92 93 91 81 84 90 89 86 86 86 88 89 89 89 88 86 87 87 90 90 88 90 92 92 92 94 98 100 99
84 84 90 88 90 92 93 91 73 72 68 68 68 77 85 72 72 76 77 78 80 82 86 92 92 92 93 93 92 91 88 90 91 90 88 88 91 92 94 92 95 98 98
95 92 90 91 89 93 94 95 97 90 72 71 70 70 69 72 72 75 76 75 77 83 91 92 94 93 94 92 93 93 94 91 89 90 91 92 91 92 94 94 95 97 98
96 94 97 98 99 98 97 98 100 99 94 93 79 75 72 71 73 74 76 77 86 86 90 94 94 94 94 94 93 94 92 90 90 91 92 92 93 94 94 95 95 97 97
95 97 98 97 97 97 96 97 95 96 95 94 91 87 84 74 76 78 81 91 93 93 93 93 93 94 94 94 94 93 93 93 92 92 92 93 93 94 93 94 95 96 95
96 90 94 97 97 95 95 93 93 94 93 92 93 96 90 83 91 92 90 93 93 94 94 94 93 92 94 95 94 94 93 92 92 92 93 94 94 95 95 95 95 95 95
98 97 94 95 96 97 97 96 96 97 96 95 97 97 97 92 94 95 94 94 94 95 95 95 94 94 93 94 93 94 94 93 92 92 93 94 94 95 95 95 94 94 94
96 97 95 97 95 97 97 94 97 97 96 98 99 97 99 99 96 94 95 96 99 96 96 96 96 95 94 95 96 95 94 94 92 92 92 93 94 94 94 94 94 94 94
97 96 96 96 98 98 98 96 98 99 99 98 100 98 96 99 100 99 98 98 98 98 98 96 95 94 92 93 94 95 96 96 95 94 94 94 94 94 95 95 95 94 94
96 97 97 99 99 98 100 100 100 100 100 100 100 100 100 100 100 100 100 99 98 100 99 100 95 96 94 93 92 92 93 93 94 92 95 96 94 94 94 94 95 95 96
97 98 99 99 100 100 100 100 100 100 100 100 100 100 100 100 99 100 99 100 99 100 100 99 99 95 95 97 95 92 93 96 93 90 91 91 93 93 95 94 95 95 95
97 97 99 99 99 100 100 100 100 100 100 100 100 100 100 100 100 100 100 100 99 98 100 99 97 96 98 94 93 92 90 92 93 94 90 89 90 91 92 93 95 95 95
Wind_Speed
17 17 17 19 19 18 17 18 19 17 11 10 9 9 7 4 13 13 21 20 15 11 9 11 11 8 6 5 5 4 6 6 9 6 5 5 5 6 4 6 8 9 9
15 16 17 17 18 19 18 19 20 17 12 11 9 12 14 13 12 16 27 22 14 13 9 9 8 5 7 7 7 9 8 10 9 14 6 5 7 5 5 5 7 7 9
16 16 17 18 19 20 21 17 18 16 14 11 14 17 15 15 17 17 18 25 9 10 12 11 9 7 0 2 6 10 9 8 10 7 7 4 4 3 3 4 5 7 5
16 17 17 17 16 15 18 15 14 15 12 15 17 17 19 19 15 18 20 19 12 13 10 9 7 10 7 8 6 6 5 4 7 7 7 7 4 4 3 5 4 3 6
16 17 17 16 13 14 16 15 16 15 15 16 16 18 18 21 15 18 17 10 17 10 7 11 9 9 8 11 8 7 7 5 5 6 8 5 4 3 5 4 7 6 5
15 16 16 17 16 16 16 16 17 17 18 18 18 17 19 15 28 28 19 13 8 12 11 13 11 17 16 17 17 12 10 7 9 6 7 9 12 7 5 6 6 4 6
14 15 16 17 18 18 17 19 19 18 17 19 17 17 19 22 35 33 23 11 9 12 12 13 10 11 12 13 12 12 9 10 11 10 11 12 9 6 6 7 9 8 10
14 15 15 16 16 17 17 17 18 16 19 18 17 17 17 19 36 34 24 9 6 8 14 17 16 15 15 16 13 12 11 9 9 8 11 12 13 9 9 10 12 8 3
15 15 15 13 15 15 16 14 13 13 12 12 14 17 19 22 36 35 21 14 17 19 17 15 17 16 23 23 12 12 10 10 9 14 15 20 17 18 12 6 4 5 4
13 14 14 14 13 14 14 14 12 11 12 10 13 19 28 20 32 31 22 11 12 10 13 17 21 22 21 20 11 11 13 13 15 16 12 10 13 16 16 12 8 10 3
12 12 12 13 10 12 10 10 10 9 10 13 15 15 18 21 21 32 32 15 11 9 8 9 10 24 24 23 21 13 13 15 14 10 9 8 6 5 4 7 11 9 9
11 10 12 11 10 7 10 11 14 15 17 17 16 14 14 17 30 29 32 28 23 12 11 10 11 23 23 22 16 23 22 14 8 8 7 7 7 6 6 6 5 7 9
9 9 10 11 11 10 10 12 13 14 12 12 12 12 12 13 13 27 28 27 24 11 10 16 21 21 22 15 24 26 16 10 10 8 9 8 8 8 8 5 2 3 1
7 9 9 10 12 12 6 8 10 11 11 11 12 12 11 11 12 12 12 12 19 14 13 10 12 14 13 11 12 13 11 11 11 10 11 9 9 8 7 4 3 3 3
7 8 8 8 8 9 9 9 10 12 14 9 9 9 11 12 15 19 18 12 11 11 9 8 11 12 13 13 13 13 12 12 12 11 11 11 9 9 7 7 4 2 4
8 7 7 6 6 6 6 7 17 20 25 26 26 16 10 23 26 26 24 25 26 20 10 11 12 11 12 12 12 12 12 14 12 11 11 11 11 11 10 8 6 5 6
5 7 6 6 7 6 6 6 6 8 20 24 26 25 26 23 26 27 25 23 26 19 12 11 11 12 12 11 11 11 12 12 13 11 10 11 12 10 11 9 8 5 3
4 6 3 3 2 3 4 4 2 4 8 9 15 20 22 23 23 25 24 15 12 15 10 11 11 12 12 12 12 11 12 12 13 12 12 12 11 10 10 9 8 7 5
4 3 3 3 3 4 3 3 4 5 5 5 5 8 11 19 20 22 21 10 8 9 9 9 10 10 10 11 11 11 12 12 13 12 12 11 11 10 10 9 7 8 7
3 6 5 4 4 5 5 6 6 6 6 6 7 7 7 7 10 10 10 9 9 8 8 8 8 9 9 10 10 10 11 12 13 12 11 10 10 9 8 9 8 7 6
2 2 5 4 4 4 3 5 5 5 5 6 6 6 7 7 7 7 8 9 8 8 8 8 8 8 8 9 10 10 10 10 11 12 11 11 10 9 9 7 6 6 6
2 2 3 3 3 4 3 4 4 4 5 5 4 5 8 3 5 6 6 6 4 6 6 7 7 7 8 8 9 10 10 11 11 12 12 11 10 9 9 7 7 6 6
2 3 3 3 3 3 3 3 3 3 3 4 4 4 4 4 4 4 5 5 5 5 6 6 6 7 7 7 8 8 9 10 11 11 11 11 10 10 9 8 7 6 7
2 3 2 1 2 2 3 2 3 4 3 3 3 3 3 3 3 5 4 5 4 4 4 4 6 8 9 9 8 9 9 10 9 10 12 10 10 11 9 8 8 8 6
2 2 2 1 1 1 2 2 2 2 2 2 2 2 2 2 3 4 4 4 5 3 5 5 4 8 9 11 12 15 15 17 14 15 9 10 11 12 10 7 8 6 8
2 2 2 1 1 1 0 1 2 1 2 3 2 1 1 1 2 3 3 4 4 4 4 4 6 9 10 9 12 16 16 17 15 17 10 8 9 9 9 9 11 6 7
Wind_Direction
335 334 337 346 349 346 342 333 334 325 332 333 26 11 357 169 86 4 283 200 202 190 193 168 181 152 175 184 170 176 189 191 235 242 221 218 213 210 223 214 217 214 216
338 340 347 347 355 355 343 341 338 335 343 11 23 35 32 43 63 31 356 245 191 161 163 154 175 172 197 193 191 204 208 206 218 246 214 209 210 218 226 201 219 221 220
344 346 352 357 360 357 347 344 341 340 352 29 41 41 40 44 49 38 28 335 116 97 98 105 92 57 174 304 215 216 211 216 213 226 247 193 196 166 218 231 216 226 228
349 352 355 1 357 357 349 345 336 347 354 32 40 44 42 43 36 50 42 348 327 77 80 76 70 72 60 14 339 341 341 245 213 215 230 243 203 210 174 207 233 227 229
354 357 356 360 0 1 357 349 354 353 10 24 37 40 41 43 18 50 64 297 360 15 61 73 61 39 33 40 331 330 329 324 302 251 225 225 193 191 200 184 221 226 224
356 359 357 360 5 8 5 357 4 4 9 21 27 30 39 45 38 46 41 31 357 334 20 40 36 38 15 40 11 345 318 297 279 270 281 234 232 215 203 201 210 179 252
357 359 358 3 5 6 9 6 12 10 12 21 19 18 34 38 33 29 36 61 350 19 331 45 47 44 33 2 329 322 291 263 246 266 262 254 259 218 200 209 218 222 226
359 358 359 6 7 9 13 9 11 8 14 15 11 17 24 34 37 30 31 40 5 24 13 26 29 23 19 343 335 317 307 290 264 239 236 256 262 266 230 221 213 207 47
2 356 356 358 7 10 11 10 17 14 13 18 15 21 26 30 31 27 20 17 17 16 12 19 22 8 358 347 342 322 306 293 301 291 281 266 255 245 245 223 190 168 226
355 353 355 356 17 13 14 11 1 11 16 18 21 26 25 30 30 31 31 19 21 11 12 17 10 12 357 357 351 339 336 329 325 316 307 286 249 243 234 238 215 211 191
349 350 356 1 4 14 16 10 10 17 15 26 29 29 31 29 25 28 30 26 17 16 16 5 4 5 6 5 6 354 335 321 319 308 300 294 284 247 229 223 236 209 220
344 349 357 354 3 23 8 9 15 16 18 25 22 21 20 22 23 22 27 30 24 18 14 4 358 4 8 9 6 359 352 345 337 336 335 344 352 340 336 312 295 276 263
341 348 355 353 1 10 26 23 22 16 20 23 25 28 21 15 21 21 19 22 22 17 13 12 10 8 8 2 6 5 358 360 354 351 346 340 325 312 302 296 292 278 289
1 7 1 2 11 9 29 37 33 21 24 19 25 22 20 17 19 17 18 14 11 11 358 1 2 8 8 4 359 2 1 2 1 353 343 330 320 333 327 323 312 328 340
23 24 13 8 5 8 15 28 37 25 35 26 29 26 19 25 20 23 26 22 16 6 352 6 11 13 8 7 2 359 355 4 359 353 351 340 338 336 333 331 291 260 248
28 23 15 19 15 14 16 14 30 44 35 39 32 38 26 31 24 23 26 25 26 15 21 22 13 8 9 359 360 349 357 358 351 346 351 351 346 340 335 332 321 295 275
19 23 23 19 21 24 17 19 14 3 35 33 35 32 34 27 29 27 26 26 26 26 29 17 12 4 358 354 352 355 347 346 341 352 346 348 351 342 339 340 341 327 324
8 16 24 4 1 356 4 7 21 14 21 19 21 29 28 32 31 32 28 22 21 23 22 13 3 359 357 353 347 346 342 342 347 345 351 350 347 346 343 350 352 340 350
4 2 3 3 3 11 10 14 24 24 34 31 15 21 17 24 31 30 30 35 25 19 11 6 1 355 349 348 348 343 337 340 341 344 347 347 345 343 350 351 343 353 351
15 18 21 7 359 9 13 23 28 28 33 37 33 23 12 16 23 20 22 19 17 15 4 1 358 355 350 345 343 340 339 341 345 342 341 341 341 338 346 354 360 357 5
23 16 21 21 15 9 5 17 16 14 22 23 23 24 28 34 22 17 16 13 11 5 358 356 352 352 352 346 344 343 344 337 336 335 337 342 341 340 347 352 349 360 10
30 16 16 14 23 22 15 25 18 19 19 17 347 6 17 21 23 17 14 9 348 2 359 350 346 346 347 342 337 337 338 337 337 337 336 338 340 339 340 351 356 2 17
51 45 33 23 14 30 31 14 20 17 13 8 1 17 19 9 360 4 356 340 348 345 347 354 347 349 346 343 337 335 334 334 330 332 332 332 335 342 343 346 354 2 25
70 67 57 53 31 34 41 19 2 17 16 12 1 359 16 0 355 346 339 339 334 338 333 338 350 348 345 347 344 340 336 333 331 334 334 334 336 340 344 348 349 1 16
86 81 80 95 39 356 18 5 10 359 352 1 356 354 352 354 346 337 327 327 329 332 337 340 345 344 347 337 345 343 337 339 340 343 341 345 343 345 346 347 350 0 15
122 105 104 76 23 339 340 305 285 297 308 305 327 255 239 297 306 319 322 330 327 328 341 332 342 344 340 344 350 351 342 345 346 343 348 351 354 353 348 351 356 8 13